[[{"header":{"parameterUnit":"m.s-1","parameterCategory":1,"la1":30.2991,"la2":30.254,"lo1":-89.0895,"lo2":-89.0444,"dy":0.0017,"dx":0.0017,"nx":28,"ny":28,"refTime":"2024-02-26T03:00:00:Z","depth":0,"parameterNumber":2,"parameterNumberName":"U-component_of_WINDS"},"data":[0,0,0,0,0,0,0,0,0,0,0,0,0,0,0,0,0,0,0,0,0,0,0,0,0,0,0,0,0,0,0,0,0,0,0,0,0,0,0,0,0,0,0,0,0,0,0,0,0,0,0,0,0,0,0,0,0,0,2.0439,2.044,0,2.0493,2.0494,2.0494,2.0485,2.0484,2.0483,2.0482,2.0541,2.0543,2.0545,0,0,0,0,0,0,0,0,0,0,0,0,0,2.0333,2.0335,2.0439,2.044,2.0441,2.0493,2.0494,2.0494,2.0485,2.0484,2.0483,2.0482,2.054,2.0543,2.0546,0,0,0,0,0,0,0,0,0,0,0,0,0,2.0382,2.0336,2.0439,2.0442,2.0443,2.0493,2.0494,2.0494,2.0485,2.0484,2.0483,2.0481,2.0539,2.0542,2.0546,2.0597,0,0,2.0557,2.0559,0,0,0,0,0,0,0,0,2.038,2.0386,2.0441,2.0442,2.0443,2.0481,2.0477,2.0529,2.0486,2.047,2.0482,2.0481,2.0522,2.0527,2.054,2.06,2.0602,2.0558,2.056,2.0561,2.0562,0,0,0,0,0,0,0,2.0376,2.0384,2.0461,2.0442,2.0443,2.0442,2.0448,2.0487,2.0503,2.0471,2.047,2.0477,2.0522,2.0537,2.0542,2.0603,2.0557,2.0561,2.0563,2.0564,2.0708,2.071,0,0,0,0,0,0,2.0371,2.0381,2.0459,2.0462,2.0407,2.0445,2.0451,2.047,2.0503,2.0506,2.0478,2.0476,2.0531,2.0537,2.0544,2.0606,2.0561,2.0565,2.0567,2.0706,2.0708,2.071,0,0,0,0,0,0,2.0369,2.0378,2.0457,2.0422,2.0431,2.0449,2.047,2.0472,2.0486,2.0508,2.0511,2.0489,2.053,2.0539,2.0584,2.0608,2.0566,2.057,2.0704,2.0707,2.0709,2.0731,0,0,0,0,0,0,2.0366,2.0378,2.0396,2.0422,2.0433,2.0495,2.0471,2.0474,2.0492,2.049,2.052,2.0523,2.053,2.0578,2.0587,2.0612,2.0573,2.0702,2.0706,2.0708,2.0728,2.0734,2.0738,0,0,0,0,0,2.0362,2.0401,2.0397,2.0406,2.0457,2.0496,2.0503,2.0509,2.0494,2.0514,2.0528,2.0522,2.0604,2.0583,2.0593,2.0619,2.0701,2.0705,2.0708,2.0726,2.0732,2.0738,0,0,0,0,0,0,2.0378,2.0404,2.04,2.0448,2.047,2.0495,2.0519,2.0516,2.0543,2.0541,2.0548,2.0555,2.0601,2.0615,2.0591,2.0671,2.065,2.0656,2.066,2.0667,2.0672,2.0668,2.0576,0,0,0,0,0,2.0387,2.0416,2.0437,2.0477,2.0488,2.0502,2.0519,2.0522,2.0546,2.0555,2.0572,2.0596,2.0628,2.0648,2.0678,2.073,2.0737,2.0753,2.0758,2.0762,2.0768,2.0797,2.0805,2.0722,2.0722,2.0722,0,0,2.0406,2.0423,2.0441,2.0481,2.0498,2.0529,2.051,2.0543,2.0566,2.0561,2.0604,2.0618,2.0645,2.0694,2.0717,2.0707,2.0792,2.0767,2.077,2.0773,2.0802,2.081,2.0817,2.0725,2.0724,2.0724,0,0,2.0456,2.0472,2.0507,2.0525,2.0551,2.056,2.0568,2.0594,2.0602,2.0646,2.0642,2.0671,2.0724,2.0744,2.0761,2.082,2.0816,2.0829,2.0857,2.0886,2.0892,2.0898,2.092,2.0928,2.0834,2.0834,2.0834,0,2.0476,2.0521,2.0526,2.056,2.0578,2.0573,2.061,2.0627,2.0662,2.0675,2.0664,2.0731,2.0749,2.0803,2.0817,2.0831,2.0842,2.0826,2.0891,2.0897,2.0902,2.0923,2.0932,2.0836,2.0836,2.0836,2.0835,0,2.0546,2.0577,2.0603,2.0636,2.0657,2.0692,2.0703,2.0724,2.0725,2.0736,2.0781,2.0803,2.0837,2.085,2.0852,2.0905,2.0898,2.0889,2.0869,2.0912,2.0932,2.094,2.0838,2.0837,2.0837,2.0837,0,0,2.0607,2.0642,2.0652,2.0667,2.0696,2.0721,2.0757,2.0789,2.0808,2.0832,2.0863,2.0908,2.09,2.0919,2.0923,2.0949,2.0995,2.0936,2.0937,2.0947,2.1056,2.1064,2.1073,2.0993,2.0994,2.0995,2.1054,0,2.0661,2.0722,2.0728,2.0783,2.0813,2.0809,2.0841,2.0862,2.0874,2.0902,2.0914,2.0947,2.0932,2.0944,2.0969,2.0984,2.1017,2.098,2.1023,2.1024,2.1017,2.1083,2.1091,2.1146,2.1062,2.1063,2.1064,0,2.0731,2.0757,2.0815,2.0841,2.0853,2.0881,2.0912,2.0938,2.0964,2.097,2.0992,2.0993,2.1031,2.1009,2.1063,2.1037,2.1055,2.1065,2.1068,2.1073,2.1047,2.1091,2.1163,2.1172,2.1076,2.1076,2.1075,0,2.0771,2.082,2.0862,2.0875,2.0906,2.0925,2.0939,2.0963,2.0983,2.101,2.1023,2.1055,2.1073,2.1098,2.1109,2.1091,2.1162,2.114,2.117,2.117,2.1185,2.1184,2.1262,2.1196,2.1196,2.1195,2.1195,0,2.083,2.0867,2.088,2.0906,2.0947,2.0954,2.0994,2.1007,2.1029,2.1058,2.1057,2.1085,2.1096,2.1126,2.1135,2.1178,2.1186,2.1194,2.1196,2.1194,2.1193,2.1207,2.1203,2.1198,2.1197,2.1197,2.1196,0,2.0882,2.0892,2.0938,2.0963,2.097,2.0999,2.1021,2.1047,2.1058,2.1095,2.1104,2.1121,2.1157,2.1169,2.1212,2.1218,2.1269,2.1268,2.126,2.1261,2.129,2.1288,2.138,2.1393,2.1317,2.1318,2.1318,0,2.0919,2.0947,2.0975,2.0994,2.1008,2.1039,2.1059,2.1067,2.1088,2.1119,2.1142,2.1176,2.1205,2.1262,2.1279,2.1313,2.1312,2.1343,2.1317,2.1316,2.1314,2.1313,2.1316,2.1347,2.1348,2.1349,2.1349,0,2.0985,2.0989,2.1017,2.1047,2.1071,2.1095,2.1119,2.1135,2.1147,2.1171,2.1207,2.1229,2.1273,2.1308,2.1342,2.1358,2.1357,2.1357,2.1366,2.1365,2.136,2.1364,2.1274,2.1355,2.1354,2.1354,2.1354,2.1354,2.1031,2.1056,2.1079,2.1111,2.113,2.1152,2.1178,2.1192,2.1221,2.1257,2.126,2.1299,2.1325,2.1371,2.1388,2.142,2.1412,2.1424,2.1427,2.1431,2.1433,2.1354,2.1426,2.1426,2.1426,2.1426,2.1426,0,2.1097,2.1112,2.1141,2.1175,2.12,2.1195,2.1221,2.1243,2.1277,2.1301,2.1329,2.1371,2.1405,2.1425,2.146,2.1481,2.1482,2.149,2.1489,2.1493,2.1438,2.1427,2.149,2.149,2.149,2.149,2.149,2.149,2.1135,2.1177,2.1184,2.1236,2.1251,2.1288,2.1304,2.1325,2.1344,2.139,2.1419,2.1431,2.1454,2.1491,2.1523,2.1528,2.1541,2.1551,2.1556,2.1504,2.1497,2.1491,2.1481,2.1554,2.1554,2.1609,2.1609,2.161]},{"header":{"parameterUnit":"m.s-1","parameterCategory":1,"la1":30.2991,"la2":30.254,"lo1":-89.0895,"lo2":-89.0444,"dy":0.0017,"dx":0.0017,"nx":28,"ny":28,"refTime":"2024-02-26T03:00:00:Z","depth":0,"parameterNumber":3,"parameterNumberName":"V-component_of_WINDS"},"data":[0,0,0,0,0,0,0,0,0,0,0,0,0,0,0,0,0,0,0,0,0,0,0,0,0,0,0,0,0,0,0,0,0,0,0,0,0,0,0,0,0,0,0,0,0,0,0,0,0,0,0,0,0,0,0,0,0,0,4.569,4.5691,0,4.5769,4.577,4.5771,4.5766,4.5765,4.5764,4.5762,4.5839,4.5843,4.5846,0,0,0,0,0,0,0,0,0,0,0,0,0,4.5534,4.5537,4.569,4.5691,4.5692,4.5769,4.577,4.5771,4.5766,4.5765,4.5763,4.5762,4.5838,4.5842,4.5846,0,0,0,0,0,0,0,0,0,0,0,0,0,4.5606,4.5538,4.569,4.5699,4.5701,4.5769,4.577,4.5771,4.5766,4.5765,4.5763,4.5761,4.5837,4.5842,4.5846,4.5909,0,0,4.5861,4.5863,0,0,0,0,0,0,0,0,4.5602,4.5612,4.5697,4.5699,4.5701,4.5756,4.5743,4.5817,4.5767,4.5741,4.5762,4.576,4.5813,4.5819,4.5838,4.5913,4.5916,4.5861,4.5864,4.5866,4.5867,0,0,0,0,0,0,0,4.5597,4.5609,4.5721,4.5698,4.57,4.5699,4.5707,4.5757,4.5786,4.5743,4.5743,4.5753,4.5813,4.5833,4.584,4.5917,4.5861,4.5865,4.5868,4.587,4.6052,4.6054,0,0,0,0,0,0,4.5591,4.5605,4.5719,4.5724,4.5646,4.5703,4.5712,4.574,4.5785,4.579,4.5754,4.5752,4.5826,4.5834,4.5842,4.5922,4.5866,4.587,4.5873,4.605,4.6052,4.6054,0,0,0,0,0,0,4.5587,4.5601,4.5716,4.5664,4.5679,4.5708,4.5738,4.5742,4.5762,4.5793,4.5798,4.5769,4.5825,4.5836,4.5894,4.5924,4.5872,4.5877,4.6047,4.605,4.6053,4.608,0,0,0,0,0,0,4.5583,4.56,4.5624,4.5665,4.5681,4.5766,4.574,4.5745,4.5771,4.5769,4.5809,4.5814,4.5825,4.5887,4.5898,4.593,4.588,4.6045,4.6049,4.6052,4.6076,4.6083,4.6089,0,0,0,0,0,4.5577,4.5627,4.5625,4.5639,4.5713,4.5768,4.5778,4.579,4.5773,4.5798,4.5819,4.5812,4.5919,4.5893,4.5906,4.5939,4.6043,4.6048,4.6052,4.6073,4.6082,4.6089,0,0,0,0,0,0,4.5587,4.5632,4.5631,4.5695,4.5728,4.5767,4.5799,4.5798,4.5836,4.5832,4.5845,4.5854,4.5913,4.5931,4.5902,4.6004,4.5979,4.5986,4.599,4.5999,4.6005,4.6,4.5884,0,0,0,0,0,4.5597,4.5639,4.5676,4.5729,4.5746,4.577,4.5794,4.5801,4.5835,4.5849,4.5873,4.5906,4.5947,4.5973,4.6012,4.6078,4.6088,4.6108,4.6114,4.6119,4.6126,4.6165,4.6175,4.6069,4.6069,4.6069,0,0,4.5617,4.5647,4.5672,4.5732,4.5758,4.5801,4.5781,4.5827,4.5859,4.5855,4.5913,4.5932,4.5969,4.6032,4.6061,4.6049,4.6157,4.6125,4.6129,4.6133,4.6171,4.6181,4.619,4.6072,4.6072,4.6071,0,0,4.5677,4.5703,4.5752,4.578,4.582,4.5837,4.5848,4.5888,4.5902,4.596,4.5959,4.5997,4.6066,4.6094,4.6117,4.6191,4.6187,4.6203,4.6237,4.6275,4.6284,4.6291,4.632,4.633,4.6209,4.6209,4.6209,0,4.5697,4.5763,4.5777,4.5825,4.5851,4.5851,4.5902,4.5927,4.5978,4.5997,4.5983,4.6073,4.6097,4.6169,4.6187,4.6205,4.622,4.6199,4.6281,4.6289,4.6296,4.6324,4.6334,4.6211,4.621,4.621,4.621,0,4.5787,4.5833,4.5867,4.592,4.595,4.5998,4.602,4.6049,4.6054,4.6071,4.6132,4.6162,4.6209,4.6226,4.6229,4.6298,4.629,4.6279,4.6254,4.6308,4.6334,4.6345,4.6213,4.6213,4.6212,4.6212,0,0,4.5854,4.5916,4.5928,4.5954,4.6,4.6035,4.6084,4.6132,4.6158,4.6193,4.6236,4.6296,4.6287,4.6313,4.632,4.6354,4.6414,4.6338,4.6339,4.6354,4.6494,4.6505,4.6516,4.6411,4.6413,4.6415,4.6492,0,4.5921,4.601,4.6025,4.6102,4.6147,4.6148,4.6191,4.6224,4.6243,4.6282,4.6301,4.6345,4.6328,4.6345,4.6378,4.6399,4.6442,4.6394,4.6452,4.6454,4.6445,4.653,4.654,4.6612,4.6502,4.6504,4.6505,0,4.601,4.6052,4.6134,4.6178,4.6197,4.6235,4.6282,4.632,4.6358,4.6369,4.64,4.6404,4.6455,4.6427,4.6499,4.6466,4.6491,4.6505,4.6508,4.6516,4.6484,4.6542,4.6634,4.6646,4.6521,4.652,4.6518,0,4.6055,4.613,4.6191,4.6212,4.6263,4.6291,4.6313,4.635,4.6379,4.6419,4.6438,4.6482,4.6507,4.6542,4.6559,4.6536,4.6631,4.6603,4.6642,4.6642,4.6663,4.6662,4.6763,4.6675,4.6675,4.6675,4.6675,0,4.6129,4.618,4.6212,4.6249,4.6307,4.6324,4.6381,4.6402,4.6435,4.6477,4.648,4.6519,4.6537,4.6579,4.6592,4.6651,4.6661,4.6673,4.6676,4.6674,4.6673,4.6691,4.6688,4.6678,4.6677,4.6676,4.6676,0,4.6189,4.6212,4.6279,4.6323,4.6335,4.6376,4.6414,4.6451,4.6469,4.6522,4.6536,4.6565,4.6614,4.6634,4.6694,4.6703,4.6772,4.677,4.676,4.6761,4.6801,4.6798,4.6919,4.6937,4.6835,4.6836,4.6837,0,4.6236,4.6276,4.6326,4.6355,4.6379,4.6425,4.6456,4.6474,4.6505,4.6554,4.6585,4.6635,4.6676,4.6755,4.6782,4.6828,4.6829,4.6868,4.6836,4.6833,4.6833,4.6831,4.6836,4.6875,4.6876,4.6876,4.6877,0,4.6318,4.6328,4.6372,4.6422,4.6458,4.6497,4.6535,4.6559,4.6583,4.6618,4.667,4.6702,4.6766,4.6816,4.6865,4.6887,4.6887,4.6887,4.6899,4.6899,4.6893,4.6899,4.6779,4.6885,4.6884,4.6883,4.6883,4.6883,4.6374,4.6411,4.6453,4.6503,4.6535,4.6571,4.6609,4.6633,4.6677,4.6732,4.6739,4.6796,4.6835,4.6901,4.6926,4.697,4.696,4.6976,4.6981,4.6985,4.699,4.6884,4.6978,4.6978,4.6978,4.6978,4.6978,0,4.6459,4.6486,4.6532,4.6587,4.6627,4.6625,4.6667,4.6701,4.6751,4.6788,4.683,4.6891,4.6941,4.6972,4.7022,4.7052,4.7053,4.7065,4.7064,4.707,4.6995,4.6981,4.7063,4.7063,4.7063,4.7063,4.7063,4.7063,4.6507,4.6571,4.6587,4.6666,4.6693,4.6751,4.6776,4.681,4.684,4.6909,4.6951,4.6972,4.7007,4.706,4.7106,4.7114,4.7133,4.7146,4.7153,4.7083,4.7074,4.7066,4.7053,4.7149,4.7149,4.7225,4.7225,4.7226]}]]